Wind_Speed
10 10 11 12 12 13 14 14 14 15 15 16 17 17 17 18 18 18 19 20 19 19 18 18 18 17 16 16 15 14 13 13 12 12 12 11 9 8 7 5 3 2 1
11 11 12 13 14 15 15 16 16 16 17 18 18 19 19 19 20 20 21 20 20 20 20 19 19 19 18 17 16 15 14 13 13 13 12 11 10 9 8 6 4 3 1
11 12 12 14 15 15 16 16 17 18 19 19 19 20 21 21 21 22 23 23 22 23 22 21 21 21 20 18 17 16 15 13 13 13 13 12 11 10 8 7 5 4 2
12 12 13 13 14 14 15 16 17 18 19 20 21 22 23 23 24 23 24 24 24 25 24 23 22 22 21 20 19 18 16 15 13 13 13 12 11 10 9 8 6 5 3
12 11 11 11 12 12 13 14 15 16 17 19 20 21 22 23 24 25 25 25 24 25 25 24 24 23 22 22 21 19 18 16 15 14 13 13 12 11 10 9 7 6 4
10 9 9 10 10 11 12 12 13 14 15 16 17 18 20 21 22 23 24 24 24 24 25 25 25 24 23 22 21 20 19 17 16 15 14 14 13 12 12 10 9 7 5
9 9 8 9 9 10 10 10 11 12 13 14 15 16 17 18 20 21 22 23 23 24 24 25 26 26 25 24 23 21 20 19 18 17 15 15 14 13 13 11 10 9 7
9 8 8 8 9 9 9 9 10 11 12 13 14 15 16 17 17 18 19 21 22 23 24 24 25 25 25 25 24 22 20 20 19 18 17 16 15 14 14 13 11 10 9
8 8 8 8 8 9 9 10 11 11 12 13 14 14 15 16 16 17 18 20 21 22 23 24 24 24 24 24 25 24 23 21 20 20 18 17 16 15 14 13 13 11 10
7 7 7 8 8 9 10 11 12 13 13 14 14 14 15 15 15 16 17 18 20 21 22 23 23 23 23 23 24 26 25 22 21 21 20 18 17 16 15 14 14 13 12
6 6 7 7 8 9 10 11 12 13 14 14 14 15 15 15 16 16 17 17 18 19 21 22 23 24 24 24 23 24 26 25 22 22 21 20 19 18 16 15 15 14 13
5 6 6 7 8 10 11 11 12 13 14 15 15 15 16 16 16 16 16 16 17 17 19 20 22 23 23 24 24 24 25 26 25 23 22 21 21 19 18 17 16 15 14
6 6 7 8 9 10 11 12 13 14 15 16 17 17 17 16 16 16 16 16 17 17 17 18 20 22 22 23 24 25 25 25 25 25 24 23 22 20 19 18 17 16 16
6 6 7 8 9 10 11 12 13 14 15 16 17 17 17 16 16 16 15 16 16 16 16 17 18 20 21 22 23 24 25 26 25 25 25 24 23 22 20 19 18 17 17
6 7 8 9 10 11 11 13 14 15 16 17 18 18 17 17 16 16 15 15 15 15 16 16 16 18 20 21 22 24 24 25 25 26 26 26 24 23 22 20 19 18 18
7 8 8 9 10 11 12 13 14 16 17 17 18 18 17 17 16 16 15 14 13 13 14 15 16 16 18 19 21 23 24 24 25 26 27 26 25 24 23 22 20 19 19
7 8 8 10 11 12 13 14 15 17 17 18 18 18 17 17 16 16 15 14 13 13 12 13 15 16 17 18 20 22 24 25 25 26 27 27 26 25 24 23 22 21 20
6 8 9 10 11 12 13 14 16 17 18 18 18 18 17 17 17 16 15 14 13 11 11 11 13 14 16 18 19 20 22 25 25 26 27 28 27 26 24 24 23 22 22
6 8 9 10 11 12 13 15 16 17 18 18 18 18 17 17 16 15 14 13 12 11 10 11 12 13 15 17 18 19 20 24 25 26 27 27 27 27 26 25 25 24 23
6 7 9 10 11 12 13 15 16 17 18 18 18 18 17 17 16 15 14 13 12 11 10 10 10 11 13 15 17 19 19 21 24 25 26 26 26 26 26 27 26 25 24
6 8 9 10 11 12 13 14 16 17 18 18 18 18 17 17 16 15 14 13 11 10 9 8 8 10 11 13 15 17 19 19 22 23 25 27 27 27 27 28 27 26 25
6 8 9 10 11 12 13 14 15 16 17 18 18 18 18 17 16 15 14 12 11 9 8 6 6 8 10 11 13 15 17 18 21 22 24 25 27 27 27 27 27 26 26
6 8 9 10 11 11 12 13 14 15 17 17 18 18 18 16 15 14 13 12 10 8 7 6 5 6 8 10 11 13 15 17 19 21 23 25 26 27 27 26 26 26 26
7 8 9 10 11 11 11 12 13 15 16 17 18 18 17 16 15 14 12 11 10 8 6 5 4 4 7 9 10 11 12 15 18 20 22 24 26 27 27 27 26 26 27
7 8 9 10 10 10 10 11 13 14 16 16 17 17 17 16 14 14 12 11 10 8 6 5 3 3 4 6 9 10 12 13 16 18 20 22 25 27 27 28 28 26 26
7 8 9 9 10 10 10 11 12 14 15 16 16 17 17 16 14 13 13 11 10 9 7 5 3 3 3 5 7 9 11 12 14 16 18 20 22 24 26 27 27 27 27
Wind_Direction
297 294 295 296 294 291 287 283 279 277 272 271 272 268 268 270 268 267 266 262 262 261 262 263 263 263 265 265 264 260 258 256 254 253 254 257 257 253 251 258 267 289 350
295 294 295 296 294 290 286 283 280 277 275 274 272 271 271 268 268 266 264 263 262 261 260 259 259 260 261 262 261 258 257 256 253 253 252 253 252 249 247 248 253 262 296
297 298 297 297 296 293 289 286 282 280 277 275 272 271 270 267 267 267 263 262 262 260 259 257 256 257 258 260 258 255 254 255 254 252 250 249 246 244 242 241 245 249 249
301 302 300 299 297 295 293 291 288 285 283 279 275 273 273 270 268 265 263 262 261 259 256 255 256 256 258 257 255 254 253 253 251 249 248 247 243 240 236 237 240 240 233
307 308 307 305 303 301 299 296 294 291 289 287 283 278 275 273 271 266 264 264 261 257 255 253 254 256 257 256 253 252 251 250 249 247 245 244 241 237 235 235 232 232 228
313 314 313 311 309 307 305 303 301 299 297 295 292 287 281 277 275 270 266 264 262 258 256 254 254 255 256 254 251 250 248 247 246 244 241 239 237 234 233 232 227 227 221
319 318 317 317 315 315 316 315 313 310 306 304 300 295 289 283 280 274 268 264 261 258 257 256 255 253 252 250 248 247 246 245 243 240 238 236 233 231 230 229 226 224 218
320 322 323 324 324 325 327 326 323 320 317 313 308 304 298 291 285 279 272 267 263 260 257 257 255 252 250 247 245 244 243 243 240 238 237 234 232 229 228 226 224 223 219
324 326 327 328 329 330 331 330 327 326 323 319 315 310 306 299 292 286 279 270 266 263 260 256 253 250 248 246 243 242 241 240 236 235 234 232 229 228 226 223 222 221 218
323 323 324 329 330 332 332 329 327 326 325 323 321 318 314 307 298 291 284 276 269 265 261 257 253 249 246 244 243 242 240 237 233 232 231 231 229 227 227 223 220 220 218
321 322 324 329 330 331 331 330 331 330 330 329 326 322 318 312 304 296 288 280 274 268 263 258 252 248 245 242 241 241 239 236 232 230 231 231 229 227 227 223 220 219 218
315 320 327 329 329 331 332 332 333 333 333 331 329 325 320 314 307 299 292 284 278 272 266 259 252 248 246 243 241 240 237 234 232 230 229 229 227 225 225 223 221 219 217
314 323 329 330 332 333 335 337 335 334 335 334 331 328 324 317 310 303 295 287 281 275 269 262 254 249 247 243 240 238 235 231 230 228 228 227 225 224 224 223 220 219 216
318 326 329 332 335 336 338 338 336 334 334 334 333 330 326 321 315 309 301 291 283 277 270 262 255 250 245 241 238 236 233 230 228 226 226 226 224 223 223 221 219 218 215
317 326 329 335 336 337 340 339 337 335 334 334 333 331 328 324 320 314 307 298 288 280 272 262 256 251 244 239 236 233 231 229 227 225 224 225 225 223 221 219 217 216 215
315 325 330 334 336 338 339 338 337 336 335 335 335 334 331 328 324 320 314 307 296 285 274 262 254 251 244 238 234 231 228 226 225 224 223 223 223 222 219 218 216 215 214
316 327 331 332 335 336 337 337 338 338 337 337 337 336 334 331 327 324 319 313 304 292 279 264 255 248 243 237 233 231 227 224 224 223 222 221 221 221 218 218 217 215 215
319 327 329 331 335 336 336 337 339 340 340 339 339 337 335 333 330 327 323 317 310 297 284 271 258 249 241 234 230 228 227 223 221 221 220 219 219 220 219 218 217 216 215
319 325 327 330 333 335 336 337 339 342 343 342 341 339 337 335 333 330 327 323 314 303 289 275 261 252 241 234 229 225 225 221 220 220 217 215 215 217 218 217 217 217 216
317 323 326 328 332 334 335 338 340 343 344 344 344 342 338 337 335 332 330 326 319 309 296 280 264 252 240 233 228 225 224 224 221 218 217 214 214 216 217 216 216 217 217
316 322 325 326 331 334 336 339 342 344 345 346 346 344 340 338 337 335 333 331 324 315 303 287 268 252 239 230 227 226 224 223 222 219 217 215 214 216 217 217 217 217 217
315 320 323 326 330 334 337 341 344 346 347 348 348 346 343 340 339 338 337 338 333 326 316 296 271 249 236 229 227 227 225 223 220 218 217 215 215 216 217 218 217 217 217
311 317 322 325 329 333 337 342 345 347 348 349 349 349 348 346 343 342 341 341 341 338 328 309 277 247 236 230 228 228 225 222 220 219 218 216 215 215 216 216 217 219 218
308 316 319 322 325 330 336 342 346 348 349 350 351 352 352 350 348 346 346 345 344 342 335 325 298 254 236 231 227 228 226 220 218 217 218 216 215 215 214 216 218 221 220
304 312 317 321 323 327 334 341 345 348 350 351 352 354 354 352 351 350 350 348 345 342 335 330 309 260 239 230 226 227 225 218 215 217 217 216 216 216 215 216 217 220 221
299 306 313 317 320 325 332 337 342 346 350 352 353 355 356 355 354 353 353 352 350 346 340 328 299 269 250 237 228 225 222 218 216 218 218 217 217 217 217 218 220 221 222
Height
5876 5875 5874 5873 5873 5872 5871 5871 5870 5870 5870 5869 5869 5868 5868 5868 5868 5868 5868 5868 5868 5868 5868 5869 5869 5869 5869 5869 5869 5869 5869 5870 5870 5870 5871 5871 5871 5871 5872 5872 5871 5871 5871
5874 5873 5872 5871 5871 5870 5869 5868 5868 5867 5867 5866 5866 5866 5865 5865 5865 5865 5864 5865 5865 5865 5865 5866 5866 5866 5866 5867 5867 5867 5868 5868 5868 5869 5869 5870 5870 5870 5871 5871 5871 5871 5871
5872 5871 5870 5869 5868 5867 5866 5865 5865 5864 5863 5863 5863 5862 5862 5861 5861 5861 5861 5861 5861 5861 5862 5862 5863 5863 5864 5864 5865 5865 5866 5866 5867 5867 5868 5868 5869 5869 5870 5871 5871 5871 5871
5870 5869 5868 5867 5866 5865 5864 5863 5862 5861 5860 5859 5859 5858 5858 5857 5857 5857 5857 5857 5857 5857 5858 5858 5859 5860 5860 5861 5862 5863 5863 5864 5865 5865 5866 5867 5868 5868 5869 5870 5871 5871 5871
5868 5867 5866 5865 5864 5862 5861 5860 5859 5858 5857 5856 5855 5854 5854 5853 5853 5853 5852 5852 5852 5852 5853 5854 5855 5856 5857 5858 5859 5860 5861 5862 5863 5863 5864 5865 5866 5867 5868 5869 5870 5871 5871
5866 5865 5864 5863 5862 5860 5859 5858 5857 5855 5854 5853 5852 5850 5849 5849 5848 5848 5848 5848 5848 5848 5849 5850 5851 5852 5853 5854 5855 5856 5858 5859 5860 5861 5862 5863 5864 5866 5867 5868 5869 5870 5871
5865 5863 5862 5861 5860 5858 5857 5856 5854 5853 5852 5850 5849 5847 5846 5845 5844 5843 5843 5843 5843 5844 5844 5845 5846 5847 5848 5849 5851 5853 5854 5856 5857 5859 5860 5861 5862 5864 5865 5867 5868 5869 5870
5863 5862 5860 5859 5858 5857 5855 5854 5853 5851 5850 5848 5846 5844 5842 5841 5840 5839 5839 5838 5838 5839 5839 5840 5841 5842 5844 5845 5847 5849 5851 5852 5854 5856 5857 5859 5860 5862 5863 5865 5867 5868 5870
5861 5860 5859 5858 5856 5855 5854 5852 5851 5849 5847 5846 5844 5842 5839 5838 5836 5835 5834 5834 5834 5834 5834 5835 5836 5837 5839 5840 5842 5844 5846 5849 5851 5853 5854 5856 5858 5860 5861 5863 5865 5867 5869
5860 5859 5858 5856 5855 5854 5852 5850 5849 5847 5845 5843 5841 5839 5837 5835 5833 5831 5830 5829 5829 5829 5829 5830 5831 5832 5834 5835 5837 5839 5842 5844 5847 5849 5851 5853 5855 5857 5859 5861 5863 5865 5867
5859 5858 5856 5855 5854 5852 5850 5849 5847 5845 5843 5841 5838 5836 5834 5831 5829 5828 5826 5825 5825 5824 5824 5825 5825 5827 5828 5830 5832 5834 5837 5840 5843 5845 5848 5850 5852 5855 5857 5859 5861 5863 5865
5858 5857 5855 5854 5852 5850 5849 5847 5845 5843 5841 5838 5835 5833 5830 5828 5826 5824 5822 5821 5820 5820 5819 5819 5820 5821 5823 5825 5827 5830 5832 5835 5838 5841 5844 5847 5849 5852 5854 5856 5859 5861 5864
5856 5855 5854 5852 5851 5849 5847 5845 5843 5841 5838 5835 5832 5830 5827 5824 5822 5820 5818 5817 5816 5815 5815 5815 5815 5816 5818 5820 5822 5825 5828 5831 5834 5837 5840 5843 5846 5848 5851 5854 5856 5859 5861
5855 5853 5852 5851 5849 5847 5845 5843 5841 5838 5836 5833 5830 5826 5824 5821 5819 5816 5814 5813 5811 5811 5810 5810 5811 5811 5813 5815 5817 5820 5823 5826 5829 5832 5836 5839 5842 5845 5848 5851 5854 5856 5859
5853 5852 5850 5849 5847 5845 5843 5841 5838 5836 5833 5830 5827 5823 5820 5817 5815 5813 5810 5809 5807 5806 5805 5805 5806 5807 5808 5810 5813 5815 5818 5821 5825 5828 5831 5835 5838 5841 5845 5848 5851 5854 5856
5851 5850 5848 5847 5845 5843 5841 5839 5836 5833 5830 5827 5824 5820 5817 5814 5811 5809 5807 5805 5803 5802 5801 5801 5801 5802 5804 5805 5808 5810 5813 5816 5820 5823 5827 5831 5834 5838 5841 5845 5848 5851 5854
5849 5848 5847 5845 5843 5841 5839 5837 5834 5831 5827 5824 5821 5817 5814 5811 5808 5806 5803 5801 5799 5798 5797 5797 5797 5798 5799 5801 5803 5805 5808 5811 5815 5818 5822 5826 5830 5834 5838 5841 5845 5848 5851
5848 5847 5845 5844 5842 5840 5837 5835 5832 5828 5825 5822 5818 5815 5811 5808 5805 5802 5800 5798 5796 5794 5793 5793 5793 5794 5795 5797 5799 5801 5803 5807 5810 5813 5817 5822 5826 5830 5834 5838 5841 5844 5848
5846 5845 5844 5842 5840 5838 5836 5833 5830 5826 5823 5819 5816 5812 5809 5806 5802 5800 5797 5795 5793 5791 5790 5790 5789 5790 5791 5793 5795 5797 5799 5802 5806 5809 5813 5817 5822 5826 5830 5834 5838 5841 5844
5845 5844 5842 5840 5839 5836 5834 5831 5828 5824 5821 5817 5814 5810 5807 5803 5800 5797 5794 5792 5790 5788 5787 5786 5786 5786 5788 5789 5791 5793 5796 5798 5801 5805 5809 5813 5817 5821 5825 5830 5834 5837 5841
5843 5842 5840 5839 5837 5835 5832 5829 5826 5823 5819 5816 5812 5808 5805 5801 5798 5795 5792 5789 5787 5785 5784 5783 5783 5783 5784 5786 5788 5790 5792 5795 5798 5801 5805 5809 5813 5817 5822 5826 5830 5834 5837
5841 5840 5839 5837 5835 5833 5831 5828 5825 5821 5818 5814 5811 5807 5803 5799 5796 5793 5790 5787 5785 5783 5782 5781 5780 5781 5782 5783 5785 5787 5789 5792 5794 5798 5801 5805 5809 5814 5818 5822 5826 5830 5834
5840 5839 5838 5836 5834 5832 5829 5827 5824 5820 5817 5813 5809 5805 5801 5798 5794 5791 5789 5786 5784 5782 5780 5779 5779 5779 5780 5781 5783 5785 5787 5789 5792 5795 5798 5802 5806 5810 5814 5818 5822 5826 5830
5838 5837 5836 5834 5832 5830 5828 5825 5822 5819 5816 5812 5808 5804 5800 5797 5793 5790 5788 5785 5783 5781 5780 5778 5777 5777 5778 5779 5781 5782 5784 5786 5789 5791 5795 5798 5802 5806 5810 5814 5818 5822 5825
5836 5835 5834 5833 5831 5829 5827 5824 5821 5818 5815 5811 5807 5804 5800 5796 5793 5790 5787 5784 5782 5780 5779 5778 5777 5777 5777 5778 5779 5780 5782 5783 5785 5788 5791 5795 5798 5802 5806 5810 5814 5818 5821
5834 5833 5832 5831 5829 5827 5825 5823 5820 5817 5814 5810 5807 5803 5799 5796 5792 5789 5787 5784 5782 5780 5778 5777 5776 5776 5776 5776 5777 5778 5779 5781 5783 5785 5788 5791 5795 5798 5801 5805 5809 5813 5817